Time,TemperatureF,DewpointF,PressureIn,WindDirection,WindDirectionDegrees,WindSpeedMPH,WindSpeedGustMPH,Humidity,HourlyPrecipIn,Conditions,Clouds,dailyrainin,SolarRadiationWatts/m^2,SoftwareType,DateUTC
2013-04-29 00:03:00,44.0,43.0,-100.00,SSE,166,9.0,16.0,95,0.02,,,0.35,0.000000,,2013-04-29 04:03:00,
2013-04-29 00:33:00,45.0,42.0,-100.00,SSE,160,10.0,15.0,89,0.00,,,0.35,0.000000,,2013-04-29 04:33:00,
2013-04-29 00:43:00,45.0,42.0,-100.00,SSE,160,10.0,15.0,89,0.00,,,0.35,0.000000,,2013-04-29 04:43:00,
2013-04-29 00:52:00,45.0,42.0,-100.00,SSE,160,10.0,15.0,89,0.00,,,0.35,0.000000,,2013-04-29 04:52:00,
2013-04-29 01:02:00,45.0,42.0,-100.00,SSE,160,10.0,15.0,89,0.00,,,0.35,0.000000,,2013-04-29 05:02:00,
2013-04-29 01:32:00,46.0,43.0,-100.00,SSE,163,10.0,15.0,89,0.00,,,0.35,0.000000,,2013-04-29 05:32:00,
2013-04-29 01:42:00,46.0,43.0,-100.00,SSE,163,10.0,15.0,89,0.00,,,0.35,0.000000,,2013-04-29 05:42:00,
2013-04-29 01:52:00,46.0,43.0,-100.00,SSE,163,10.0,15.0,89,0.00,,,0.35,0.000000,,2013-04-29 05:52:00,
2013-04-29 02:02:00,46.0,43.0,-100.00,SSE,163,10.0,15.0,89,0.00,,,0.35,0.000000,,2013-04-29 06:02:00,
2013-04-29 02:32:00,46.0,43.0,-100.00,SSE,166,10.0,16.0,88,0.00,,,0.35,0.000000,,2013-04-29 06:32:00,
2013-04-29 02:42:00,46.0,43.0,-100.00,SSE,166,10.0,16.0,88,0.00,,,0.35,0.000000,,2013-04-29 06:42:00,
2013-04-29 02:52:00,46.0,43.0,-100.00,SSE,166,10.0,16.0,88,0.00,,,0.35,0.000000,,2013-04-29 06:52:00,
2013-04-29 03:01:00,46.0,43.0,-100.00,SSE,166,10.0,16.0,88,0.00,,,0.35,0.000000,,2013-04-29 07:01:00,
2013-04-29 03:32:00,45.0,43.0,-100.00,SSE,165,10.0,17.0,92,0.00,,,0.35,0.000000,,2013-04-29 07:32:00,
2013-04-29 03:42:00,45.0,43.0,-100.00,SSE,165,10.0,17.0,92,0.00,,,0.35,0.000000,,2013-04-29 07:42:00,
2013-04-29 03:52:00,45.0,43.0,-100.00,SSE,165,10.0,17.0,92,0.00,,,0.35,0.000000,,2013-04-29 07:52:00,
2013-04-29 04:03:00,45.0,43.0,-100.00,SSE,165,10.0,17.0,92,0.00,,,0.35,0.000000,,2013-04-29 08:03:00,
2013-04-29 04:32:00,45.0,43.0,-100.00,SSE,162,10.0,16.0,94,0.00,,,0.35,0.000000,,2013-04-29 08:32:00,
2013-04-29 04:42:00,45.0,43.0,-100.00,SSE,162,10.0,16.0,94,0.00,,,0.35,0.000000,,2013-04-29 08:42:00,
2013-04-29 04:52:00,45.0,43.0,-100.00,SSE,162,10.0,16.0,94,0.00,,,0.35,0.000000,,2013-04-29 08:52:00,
2013-04-29 05:01:00,45.0,43.0,-100.00,SSE,162,10.0,16.0,94,0.00,,,0.35,0.000000,,2013-04-29 09:01:00,
2013-04-29 05:33:00,46.0,44.0,-100.00,SSE,168,9.0,16.0,92,0.00,,,0.35,0.000000,,2013-04-29 09:33:00,
2013-04-29 05:42:00,46.0,44.0,-100.00,SSE,168,9.0,16.0,92,0.00,,,0.35,0.000000,,2013-04-29 09:42:00,
2013-04-29 05:53:00,46.0,44.0,-100.00,SSE,168,9.0,16.0,92,0.00,,,0.35,0.000000,,2013-04-29 09:53:00,
2013-04-29 06:02:00,46.0,44.0,-100.00,SSE,168,9.0,16.0,92,0.00,,,0.35,0.000000,,2013-04-29 10:02:00,
2013-04-29 06:32:00,46.0,44.0,-100.00,SSE,157,8.0,15.0,93,0.00,,,0.35,0.000000,,2013-04-29 10:32:00,
2013-04-29 06:42:00,46.0,44.0,-100.00,SSE,157,8.0,15.0,93,0.00,,,0.35,0.000000,,2013-04-29 10:42:00,
2013-04-29 06:52:00,46.0,44.0,-100.00,SSE,157,8.0,15.0,93,0.00,,,0.35,0.000000,,2013-04-29 10:52:00,
2013-04-29 07:03:00,46.0,44.0,-100.00,SSE,157,8.0,15.0,93,0.00,,,0.35,0.000000,,2013-04-29 11:03:00,
2013-04-29 07:32:00,46.0,45.0,-100.00,SSE,160,9.0,14.0,96,0.00,,,0.35,6.000000,,2013-04-29 11:32:00,
2013-04-29 07:42:00,46.0,45.0,-100.00,SSE,160,9.0,14.0,96,0.00,,,0.35,6.000000,,2013-04-29 11:42:00,
2013-04-29 07:52:00,46.0,45.0,-100.00,SSE,160,9.0,14.0,96,0.00,,,0.35,6.000000,,2013-04-29 11:52:00,
2013-04-29 08:01:00,46.0,45.0,-100.00,SSE,160,9.0,14.0,96,0.00,,,0.35,6.000000,,2013-04-29 12:01:00,
2013-04-29 09:32:00,47.0,46.0,-100.00,SSE,166,7.0,12.0,98,-99.99,,,0.35,30.000000,,2013-04-29 13:32:00,
2013-04-29 09:42:00,47.0,46.0,-100.00,SSE,166,7.0,12.0,98,-99.99,,,0.35,30.000000,,2013-04-29 13:42:00,
2013-04-29 09:52:00,47.0,46.0,-100.00,SSE,166,7.0,12.0,98,-99.99,,,0.35,30.000000,,2013-04-29 13:52:00,
2013-04-29 10:02:00,47.0,46.0,-100.00,SSE,166,7.0,12.0,98,-99.99,,,0.35,30.000000,,2013-04-29 14:02:00,
2013-04-29 10:32:00,48.0,47.0,-100.00,SSE,155,8.0,15.0,98,0.01,,,0.36,51.000000,,2013-04-29 14:32:00,
2013-04-29 10:42:00,48.0,47.0,-100.00,SSE,155,8.0,15.0,98,0.01,,,0.36,51.000000,,2013-04-29 14:42:00,
2013-04-29 10:52:00,48.0,47.0,-100.00,SSE,155,8.0,15.0,98,0.01,,,0.36,51.000000,,2013-04-29 14:52:00,
2013-04-29 11:01:00,48.0,47.0,-100.00,SSE,155,8.0,15.0,98,0.01,,,0.36,51.000000,,2013-04-29 15:01:00,
2013-04-29 11:33:00,48.0,48.0,-100.00,SSE,150,8.0,14.0,100,0.04,,,0.40,51.000000,,2013-04-29 15:33:00,
2013-04-29 11:43:00,48.0,48.0,-100.00,SSE,150,8.0,14.0,100,0.04,,,0.40,51.000000,,2013-04-29 15:43:00,
2013-04-29 11:53:00,48.0,48.0,-100.00,SSE,150,8.0,14.0,100,0.04,,,0.40,51.000000,,2013-04-29 15:53:00,
2013-04-29 12:03:00,48.0,48.0,-100.00,SSE,150,8.0,14.0,100,0.04,,,0.40,51.000000,,2013-04-29 16:03:00,
2013-04-29 12:33:00,48.0,48.0,-100.00,SSE,157,8.0,16.0,100,0.02,,,0.42,80.000000,,2013-04-29 16:33:00,
2013-04-29 12:42:00,48.0,48.0,-100.00,SSE,157,8.0,16.0,100,0.02,,,0.42,80.000000,,2013-04-29 16:42:00,
2013-04-29 12:52:00,48.0,48.0,-100.00,SSE,157,8.0,16.0,100,0.02,,,0.42,80.000000,,2013-04-29 16:52:00,
2013-04-29 13:02:00,48.0,48.0,-100.00,SSE,157,8.0,16.0,100,0.02,,,0.42,80.000000,,2013-04-29 17:02:00,
2013-04-29 13:32:00,49.0,49.0,-100.00,SSE,151,8.0,14.0,100,0.03,,,0.44,103.000000,,2013-04-29 17:32:00,
2013-04-29 13:42:00,49.0,49.0,-100.00,SSE,151,8.0,14.0,100,0.03,,,0.44,103.000000,,2013-04-29 17:42:00,
2013-04-29 13:52:00,49.0,49.0,-100.00,SSE,151,8.0,14.0,100,0.03,,,0.44,103.000000,,2013-04-29 17:52:00,
2013-04-29 14:01:00,49.0,49.0,-100.00,SSE,151,8.0,14.0,100,0.03,,,0.44,103.000000,,2013-04-29 18:01:00,
2013-04-29 16:32:00,53.0,51.0,-100.00,SSE,159,8.0,12.0,94,-99.99,,,0.35,214.000000,,2013-04-29 20:32:00,
2013-04-29 16:43:00,53.0,51.0,-100.00,SSE,159,8.0,12.0,94,-99.99,,,0.35,214.000000,,2013-04-29 20:43:00,
2013-04-29 16:52:00,53.0,51.0,-100.00,SSE,159,8.0,12.0,94,-99.99,,,0.35,214.000000,,2013-04-29 20:52:00,
2013-04-29 17:02:00,53.0,51.0,-100.00,SSE,159,8.0,12.0,94,-99.99,,,0.35,214.000000,,2013-04-29 21:02:00,
2013-04-29 18:32:00,51.0,50.0,-100.00,SSE,163,8.0,15.0,95,-99.99,,,0.24,59.000000,,2013-04-29 22:32:00,
2013-04-29 18:42:00,51.0,50.0,-100.00,SSE,163,8.0,15.0,95,-99.99,,,0.24,59.000000,,2013-04-29 22:42:00,
2013-04-29 18:53:00,51.0,50.0,-100.00,SSE,163,8.0,15.0,95,-99.99,,,0.24,59.000000,,2013-04-29 22:53:00,
2013-04-29 19:02:00,51.0,50.0,-100.00,SSE,163,8.0,15.0,95,-99.99,,,0.24,59.000000,,2013-04-29 23:02:00,
2013-04-29 19:32:00,50.0,49.0,-100.00,SE,145,7.0,13.0,98,0.00,,,0.19,26.000000,,2013-04-29 23:32:00,
2013-04-29 19:42:00,50.0,49.0,-100.00,SE,145,7.0,13.0,98,0.00,,,0.19,26.000000,,2013-04-29 23:42:00,
2013-04-29 19:53:00,50.0,49.0,-100.00,SE,145,7.0,13.0,98,0.00,,,0.19,26.000000,,2013-04-29 23:53:00,
2013-04-29 20:01:00,50.0,49.0,-100.00,SE,145,7.0,13.0,98,0.00,,,0.19,26.000000,,2013-04-30 00:01:00,